EHI
0 0 0 0 0 0 0 0 0 0 0 0 0 0 0 0 0 0 0 0 0 0 0 0 0 0 0 0 0 0 0 0 0 0 0 0 0 0 0 0 0 0 0 0
0 0 0 0 0 0 0 0 0 0 0 0 0 0 0 0 0 0 0 0 0 0 0 0 0 0 0 0 0 0 0 0 0 0 0 0 0 0 0 0 0 0 0 0
0 0 0 0 0 0 0 0 0 0 0 0 0 0 0 0 0 0 0 0 0 0 0 0 0 0 0 0 0 0 0 0 0 0 0 0 0 0 0 0 0 0 0 0
0 0 0 0 0 0 0 0 0 0 0 0 0 0 0 0 0 0 0 0 0 0 0 0 0 0 0 0 0 0 0 0 0 0 0 0 0 0 0 0 0 0 0 0
0 0 0 0 0 0 0 0 0 0 0 0 0 0 0 0 0 0 0 0 0 0 0 0 0 0 0 0 0 0 0 0 0 0 0 0 0 0 0 0 0 0 0 0
0 0 0 0 0 0 0 0 0 0 0 0 0 0 0 0 0 0 0 0 0 0 0 0 0 0 0 0 0 0 0 0 0 0 0 0 0 0 0 0 0 0 0 0
0 0 0 0 0 0 0 0 0 0 0 0 0 0 0 0 0 0 0 0 0 0 0 0 0 0 0 0 0 0 0 0 0 0 0 0 0 0 0 0 0 0 0 0
0 0 0 0 0 0 0 0 0 0 0 0 0 0 0 0 0 0 0 0 0 0 0 0 0 0 0 0 0 0 0 0 0 0 0 0 0 0 0 0 0 0 0 0
0 0 0 0 0 0 0 0 0 0 0 0 0 0 0 0 0 0 0 0 0 0 0 0 0 0 0 0 0 0 0 0 0 0 0 0 0 0 0 0 0 0 0 0
0 0 0 0 0 0 0 0 0 0 0 0 0 0 0 0 0 0 0 0 0 0 0 0 0 0 0 0 0 0 0 0 0 0 0 0 0 0 0 0 0 0 0 0
0 0 0 0 0 0 0 0 0 0 0 0 0 0 0 0 0 0 0 0 0 0 0 0 0 0 0 0 0 0 0 0 0 0 0 0 0 0 0 0 0 0 0 0
0 0 0 0 0 0 0 0 0 0 0 0 0 0 0 0 0 0 0 0 0 0 0 0 0 0 0 0 0 0 0 0 0 0 0 0 0 0 0 0 0 0 0 0
0 0 0 0 0 0 0 0 0 0 0 0 0 0 0 0 0 0 0 0 0 0 0 0 0 0 0 0 0 0 0 0 0 0 0 0 0 0 0 0 0 0 0 0
0 0 0 0 0 0 0 0 0 0 0 0 0 0 0 0 0 0 0 0 0 0 0 0 0 0 0 0 0 0 0 0 0 0 0 0 0 0 0 0 0 0 0 0
0 0 0 0 0 0 0 0 0 0 0 0 0 0 0 0 0 0 0 0 0 0 0 0 0 0 0 0 0 0 0 0 0 0 0 0 0 0 0 0 0 0 0 0
0 0 0 0 0 0 0 0 0 0 0 0 0 0 0 0 0 0 0 0 0 0 0 0 0 0 0 0 0 0 0 0 0 0 0 0 0 0 0 0 0 0 0 0
0 0 0 0 0 0 0 0 0 0 0 0 0 0 0 0 0 0 0 0 0 0 0 0 0 0 0 0 0 0 0 0 0 0 0 0 0 0 0 0 0 0 0 0
0 0 0 0 0 0 0 0 0 0 0 0 0 0 0 0 0 0 0 0 0 0 0 0 0 0 0 0 0 0 0 0 0 0 0 0 0 0 0 0 0 0 0 0
0 0 0 0 0 0 0 0 0 0 0 0 0 0 0 0 0 0 0 0 0 0 0 0 0 0 0 0 0 0 0 0 0 0 0 0 0 0 0 0 0 0 0 0
0 0 0 0 0 0 0 0 0 0 0 0 0 0 0 0 0 0 0 0 0 0 0 0 0 0 0 0 0 0 0 0 0 0 0 0 0 0 0 0 0 0 0 0
0 0 0 0 0 0 0 0 0 0 0 0 0 0 0 0 0 0 0 0 0 0 0 0 0 0 0 0 0 0 0 0 0 0 0 0 0 0 0 0 0 0 0 0
0 0 0 0 0 0 0 0 0 0 0 0 0 0 0 0 0 0 0 0 0 0 0 0 0 0 0 0 0 0 0 0 0 0 0 0 0 0 0 0 0 0 0 0
0 0 0 0 0 0 0 0 0 0 0 0 0 0 0 0 0 0 0 0 0 0 0 0 0 0 0 0 0 0 0 0 0 0 0 0 0 0 0 0 0 0 0 0
0 0 0 0 0 0 0 0 0 0 0 0 0 0 0 0 0 0 0 0 0 0 0 0 0 0 0 0 0 0 0 0 0 0 0 0 0 0 0 0 0 0 0 0
0 0 0 0 0 0 0 0 0 0 0 0 0 0 0 0 0 0 0 0 0 0 0 0 0 0 0 0 0 0 0 0 0 0 0 0 0 0 0 0 0 0 0 0
0 0 0 0 0 0 0 0 0 0 0 0 0 0 0 0 0 0 0 0 0 0 0 0 0 0 0 0 0 0 0 0 0 0 0 0 0 0 0 0 0 0 0 0
0 0 0 0 0 0 0 0 0 0 0 0 0 0 0 0 0 0 0 0 0 0 0 0 0 0 0 0 0 0 0 0 0 0 0 0 0 0 0 0 0 0 0 0
Wind_Speed
6 7 6 7 8 9 11 10 9 9 9 8 4 3 2 2 1 1 1 1 1 1 1 1 2 2 2 2 2 2 2 3 3 3 3 3 4 4 4 4 5 5 5 4
5 6 6 9 10 10 11 11 12 12 14 8 4 3 2 2 2 2 2 1 1 1 2 2 2 2 2 3 3 2 2 3 3 3 3 4 4 4 4 4 5 5 5 5
4 3 4 9 9 10 8 8 8 11 10 3 4 3 3 3 2 2 1 1 1 1 1 2 2 2 2 3 3 3 3 3 3 4 4 4 5 4 4 4 5 5 5 5
2 2 7 6 0 4 6 7 7 6 5 3 4 4 3 2 1 1 0 1 1 1 1 2 2 2 3 2 3 3 3 3 4 4 4 5 5 5 5 4 4 4 5 5
2 4 9 4 1 1 3 6 4 5 5 4 3 3 2 2 1 0 1 0 0 0 1 2 2 3 3 3 3 3 3 4 4 4 5 5 5 5 5 5 5 5 5 5
3 4 7 3 1 1 1 4 2 1 2 3 2 2 3 2 2 1 1 1 0 0 1 1 2 2 2 3 3 4 4 4 4 4 5 5 5 5 5 5 5 5 5 5
6 6 8 2 0 1 2 4 2 2 2 1 2 3 3 2 2 2 2 1 1 0 0 1 2 1 2 3 3 4 4 4 4 4 5 5 5 4 5 5 5 5 5 5
5 6 9 1 3 3 4 1 2 3 3 2 2 3 3 2 2 1 2 2 1 1 1 1 1 1 2 3 4 4 4 4 4 4 4 4 4 4 4 4 4 5 5 5
7 7 2 3 3 2 1 2 2 3 3 2 2 2 3 2 2 2 2 2 1 1 2 2 2 1 3 4 4 4 4 4 4 4 4 4 4 4 4 3 3 4 4 4
4 6 4 3 3 2 2 2 3 2 2 2 2 2 2 2 2 2 2 2 2 2 2 3 3 2 3 3 3 4 4 4 4 4 4 4 3 3 3 3 3 4 4 4
6 5 4 3 3 3 3 2 2 2 2 2 2 3 2 2 2 2 2 2 2 2 2 3 3 3 3 3 3 3 4 4 4 3 3 3 3 3 4 3 4 5 4 3
6 4 3 3 2 2 2 3 2 2 2 2 2 3 3 2 2 2 2 2 2 2 3 3 3 3 3 3 2 3 4 4 3 3 3 3 3 4 5 5 7 8 7 6
5 3 3 4 2 2 3 3 2 2 2 2 2 2 2 2 2 2 2 2 2 3 3 3 3 3 3 3 3 3 3 4 3 3 3 3 3 3 4 5 7 7 8 8
4 3 4 3 3 3 3 2 2 1 1 1 2 2 2 2 2 2 3 3 2 3 3 3 3 4 3 3 3 3 3 4 4 3 3 3 3 3 3 4 5 5 6 8
4 3 4 3 2 2 1 1 1 1 1 1 1 1 2 2 3 3 3 2 2 3 3 3 3 4 3 3 3 3 3 3 3 3 3 3 3 3 3 4 4 4 4 5
3 3 3 3 3 3 3 3 3 3 2 2 2 2 2 2 3 3 3 2 2 4 4 4 4 4 3 2 3 3 3 5 5 3 3 2 2 2 3 3 3 3 4 4
3 4 4 4 5 5 4 4 3 3 2 3 3 2 2 2 3 3 3 3 3 4 4 4 4 4 3 2 2 2 2 3 5 4 2 2 2 2 2 3 3 3 3 4
5 5 4 4 4 4 4 3 3 3 3 3 3 2 2 3 4 4 4 4 3 4 4 3 3 3 2 2 2 2 2 2 2 2 2 2 2 2 2 2 3 4 3 4
4 4 4 4 3 3 3 3 3 3 3 3 3 3 3 4 4 3 3 3 3 5 4 3 4 2 2 3 3 1 1 2 2 2 2 3 3 2 2 2 2 3 3 3
3 3 3 3 3 3 3 3 3 3 3 3 2 3 3 4 3 3 3 3 3 4 4 3 2 2 2 2 2 1 1 1 2 2 2 2 2 2 2 2 3 3 3 3
4 4 3 3 3 3 4 4 3 4 3 3 3 4 4 4 3 3 3 4 4 3 3 4 2 2 2 2 2 1 1 1 1 1 2 2 2 2 2 3 3 3 3 3
4 4 4 4 4 4 3 3 3 4 3 3 3 3 3 3 3 3 4 4 4 4 3 2 2 3 3 2 1 1 1 1 1 1 1 1 2 2 3 3 3 3 3 3
3 4 4 4 4 3 3 3 3 4 4 4 4 4 4 4 3 3 4 2 2 4 3 2 3 4 3 1 0 0 1 1 2 2 2 1 1 2 2 3 3 3 3 3
3 3 3 3 2 2 3 4 3 3 4 4 4 4 4 3 3 3 2 3 4 4 2 3 4 4 3 1 0 0 1 1 1 2 2 2 2 2 2 2 3 3 3 4
3 3 3 3 3 4 4 3 2 2 3 2 3 3 3 3 3 2 2 2 3 3 2 3 4 4 2 0 0 1 1 1 1 1 1 2 2 2 2 2 3 3 3 3
3 3 3 4 4 3 3 2 2 3 2 2 2 2 2 2 2 2 1 1 2 2 2 1 1 2 1 0 0 1 1 1 2 2 1 2 2 2 2 2 3 3 3 3
3 2 2 2 2 2 2 3 3 3 3 3 3 2 2 2 1 1 1 1 1 1 1 1 1 0 0 1 1 1 1 1 1 1 1 1 1 2 2 3 3 3 3 3
Wind_Direction
269 277 271 255 239 221 220 225 233 252 260 268 274 260 250 234 234 251 235 223 252 297 316 326 330 332 330 330 332 328 325 319 313 312 313 313 310 308 306 305 303 298 296 294
274 262 262 265 251 236 235 236 245 261 269 271 280 289 278 248 244 246 233 225 280 310 320 319 317 318 326 321 321 326 322 316 315 314 313 310 308 307 306 305 302 299 295 292
269 295 308 267 235 219 223 223 220 240 253 292 301 296 279 263 243 235 241 269 284 307 318 320 315 313 310 308 323 325 317 312 312 314 313 313 310 307 302 299 298 295 293 295
276 318 247 243 220 194 223 245 236 251 278 288 280 288 299 303 234 256 241 274 287 316 322 316 320 323 318 317 321 316 309 308 314 314 310 310 306 303 301 299 295 292 293 290
228 255 270 262 243 197 222 268 248 246 269 290 317 314 299 346 3 277 220 215 230 284 320 318 317 319 322 322 314 306 304 309 314 313 307 304 303 301 302 301 298 294 292 293
219 237 250 253 66 20 68 279 301 255 272 302 343 292 275 329 350 344 27 51 75 39 5 326 312 315 313 307 307 301 300 302 306 303 298 299 298 299 301 299 293 294 297 295
226 243 262 270 154 104 188 257 342 1 318 303 258 246 293 338 355 16 7 1 19 358 320 294 305 319 311 309 305 303 305 304 302 300 298 296 296 299 302 301 300 297 295 292
201 227 250 165 130 186 229 298 346 339 323 307 287 306 324 334 338 351 335 344 353 327 314 314 322 321 307 303 304 311 308 303 300 301 301 304 299 300 300 299 299 299 297 297
200 220 231 165 193 221 302 316 319 320 317 308 298 304 320 333 331 322 322 331 334 312 313 318 317 307 295 300 311 315 312 305 302 305 306 302 298 299 301 302 299 299 299 299
251 254 246 233 240 257 274 281 298 301 301 302 285 292 308 319 318 321 328 324 327 327 317 315 319 315 295 305 312 312 308 305 306 310 312 311 305 302 302 301 300 300 300 301
249 262 275 255 247 264 279 285 295 296 290 282 284 290 291 298 300 305 314 317 321 307 296 300 311 310 310 316 319 313 308 306 308 309 308 312 311 305 301 293 294 297 293 291
237 230 231 260 245 252 260 263 259 274 295 297 276 278 281 284 287 292 299 306 306 301 301 305 312 312 316 318 315 310 311 312 312 312 310 308 311 321 325 312 318 317 313 302
245 260 259 267 274 272 260 261 263 256 262 283 285 277 281 285 288 288 292 294 293 295 299 304 310 312 314 314 313 306 304 306 306 307 305 305 305 310 318 328 331 328 324 322
250 267 272 267 267 267 263 264 263 260 267 268 280 292 293 291 295 293 288 287 289 296 298 299 303 304 305 311 312 307 307 303 304 297 298 300 301 308 312 314 318 321 324 327
245 243 249 259 255 260 269 265 264 269 279 298 302 293 293 292 290 290 293 301 304 298 296 300 302 301 306 312 312 306 303 299 298 300 302 305 312 319 317 313 312 315 320 326
251 251 249 249 249 248 246 244 243 250 253 264 278 281 280 279 285 292 293 288 286 288 292 296 293 293 300 306 308 304 299 307 315 310 309 317 321 319 318 318 320 323 327 330
225 240 236 245 246 245 242 240 239 245 252 257 261 270 280 285 290 292 292 283 271 275 280 280 284 295 299 297 294 294 298 303 316 320 315 315 315 317 320 323 326 329 330 338
229 235 230 233 240 244 245 238 235 236 244 251 253 254 260 265 270 277 288 298 296 291 283 278 284 293 295 299 297 292 298 305 308 312 317 320 319 322 329 332 332 331 330 335
236 233 236 239 240 236 238 236 235 236 241 240 239 244 251 256 262 271 283 292 291 289 291 290 302 308 297 298 311 296 304 308 312 317 321 322 328 333 334 331 332 330 329 333
236 229 231 240 242 231 234 238 236 237 236 227 231 246 257 263 265 269 272 267 265 269 282 296 299 288 283 286 305 288 288 296 304 313 323 330 331 332 333 334 334 335 335 333
231 228 228 232 242 239 231 228 227 236 238 221 222 236 248 260 262 260 264 275 278 278 286 297 300 290 286 292 298 298 291 298 308 314 320 327 330 329 330 332 331 330 328 328
230 226 228 229 233 245 242 226 224 233 237 232 231 236 245 256 260 261 254 253 271 292 300 287 282 287 296 301 284 283 295 302 311 311 313 318 320 321 320 321 321 320 321 322
234 229 230 229 229 241 250 237 229 227 229 228 227 231 237 244 243 246 268 266 272 290 298 276 280 288 297 306 305 306 301 295 302 303 300 302 308 311 313 315 314 314 315 317
242 237 235 228 214 231 249 251 241 233 230 233 231 228 227 239 254 244 247 274 285 290 287 282 289 294 304 323 297 288 288 290 299 305 303 301 303 307 308 310 312 314 315 316
245 236 225 211 218 232 239 237 234 235 234 235 237 234 225 219 230 249 254 255 268 287 289 284 293 303 313 320 272 278 281 274 279 288 293 304 308 310 312 313 311 311 314 315
250 241 234 229 228 226 214 207 219 225 223 235 247 237 227 221 219 229 236 243 248 274 286 284 281 296 312 282 259 268 276 287 299 303 294 295 300 304 306 310 312 311 311 313
251 242 234 240 239 221 211 212 219 225 222 221 236 235 219 214 210 208 219 229 248 269 273 273 260 252 269 275 267 268 273 277 284 288 290 291 296 298 301 303 306 309 312 312